Year,Month,Day,Hour,Minute,Value (Times are PST for temperature in C)
2018,07,14,00,00,19.10
2018,07,14,00,01,19.00
2018,07,14,00,02,19.00
2018,07,14,00,03,19.00
2018,07,14,00,04,19.00
2018,07,14,00,05,19.00
2018,07,14,00,06,19.00
2018,07,14,00,07,18.90
2018,07,14,00,08,18.90
2018,07,14,00,09,18.90
2018,07,14,00,10,18.90
2018,07,14,00,11,18.90
2018,07,14,00,12,18.90
2018,07,14,00,13,18.90
2018,07,14,00,14,18.90
2018,07,14,00,15,18.80
2018,07,14,00,16,18.80
2018,07,14,00,17,18.80
2018,07,14,00,18,18.80
2018,07,14,00,19,18.80
2018,07,14,00,20,18.80
2018,07,14,00,21,18.80
2018,07,14,00,22,18.80
2018,07,14,00,23,18.80
2018,07,14,00,24,18.80
2018,07,14,00,25,18.70
2018,07,14,00,26,18.70
2018,07,14,00,27,18.70
2018,07,14,00,28,18.70
2018,07,14,00,29,18.70
2018,07,14,00,30,18.70
2018,07,14,00,31,18.70
2018,07,14,00,32,18.70
2018,07,14,00,33,18.70
2018,07,14,00,34,18.70
2018,07,14,00,35,18.70
2018,07,14,00,36,18.70
2018,07,14,00,37,18.70
2018,07,14,00,38,18.70
2018,07,14,00,39,18.70
2018,07,14,00,40,18.70
2018,07,14,00,41,18.70
2018,07,14,00,42,18.70
2018,07,14,00,43,18.70
2018,07,14,00,44,18.70
2018,07,14,00,45,18.70
2018,07,14,00,46,18.70
2018,07,14,00,47,18.70
2018,07,14,00,48,18.70
2018,07,14,00,49,18.70
2018,07,14,00,50,18.70
2018,07,14,00,51,18.70
2018,07,14,00,52,18.70
2018,07,14,00,53,18.70
2018,07,14,00,54,18.70
2018,07,14,00,55,18.70
2018,07,14,00,56,18.70
2018,07,14,00,57,18.70
2018,07,14,00,58,18.70
2018,07,14,00,59,18.70
2018,07,14,01,00,18.70
2018,07,14,01,01,18.70
2018,07,14,01,02,18.70
2018,07,14,01,03,18.70
2018,07,14,01,04,18.70
2018,07,14,01,05,18.70
2018,07,14,01,06,18.60
2018,07,14,01,07,18.60
2018,07,14,01,08,18.60
2018,07,14,01,09,18.60
2018,07,14,01,10,18.60
2018,07,14,01,11,18.60
2018,07,14,01,12,18.60
2018,07,14,01,13,18.60
2018,07,14,01,14,18.50
2018,07,14,01,15,18.50
2018,07,14,01,16,18.50
2018,07,14,01,17,18.50
2018,07,14,01,18,18.50
2018,07,14,01,19,18.40
2018,07,14,01,20,18.40
2018,07,14,01,21,18.40
2018,07,14,01,22,18.40
2018,07,14,01,23,18.40
2018,07,14,01,24,18.40
2018,07,14,01,25,18.30
2018,07,14,01,26,18.30
2018,07,14,01,27,18.30
2018,07,14,01,28,18.30
2018,07,14,01,29,18.20
2018,07,14,01,30,18.20
2018,07,14,01,31,18.20
2018,07,14,01,32,18.20
2018,07,14,01,33,18.20
2018,07,14,01,34,18.20
2018,07,14,01,35,18.20
2018,07,14,01,36,18.20
2018,07,14,01,37,18.10
2018,07,14,01,38,18.10
2018,07,14,01,39,18.10
2018,07,14,01,40,18.10
2018,07,14,01,41,18.00
2018,07,14,01,42,18.00
2018,07,14,01,43,18.00
2018,07,14,01,44,17.90
2018,07,14,01,45,17.90
2018,07,14,01,46,17.90
2018,07,14,01,47,17.90
2018,07,14,01,48,17.90
2018,07,14,01,49,17.90
2018,07,14,01,50,17.90
2018,07,14,01,51,17.90
2018,07,14,01,52,17.90
2018,07,14,01,53,17.90
2018,07,14,01,54,17.90
2018,07,14,01,55,17.90
2018,07,14,01,56,17.90
2018,07,14,01,57,17.90
2018,07,14,01,58,17.90
2018,07,14,01,59,17.90
2018,07,14,02,00,17.90
2018,07,14,02,01,17.90
2018,07,14,02,02,17.90
2018,07,14,02,03,17.90
2018,07,14,02,04,17.90
2018,07,14,02,05,17.90
2018,07,14,02,06,17.90
2018,07,14,02,07,17.90
2018,07,14,02,08,17.90
2018,07,14,02,09,17.90
2018,07,14,02,10,17.90
2018,07,14,02,11,17.90
2018,07,14,02,12,17.90
2018,07,14,02,13,17.90
2018,07,14,02,14,17.90
2018,07,14,02,15,17.90
2018,07,14,02,16,17.90
2018,07,14,02,17,17.90
2018,07,14,02,18,17.90
2018,07,14,02,19,17.90
2018,07,14,02,20,17.90
2018,07,14,02,21,17.90
2018,07,14,02,22,17.80
2018,07,14,02,23,17.80
2018,07,14,02,24,17.80
2018,07,14,02,25,17.80
2018,07,14,02,26,17.80
2018,07,14,02,27,17.80
2018,07,14,02,28,17.80
2018,07,14,02,29,17.80
2018,07,14,02,30,17.80
2018,07,14,02,31,17.80
2018,07,14,02,32,17.90
2018,07,14,02,33,17.90
2018,07,14,02,34,17.90
2018,07,14,02,35,17.90
2018,07,14,02,36,17.90
2018,07,14,02,37,17.90
2018,07,14,02,38,17.90
2018,07,14,02,39,17.90
2018,07,14,02,40,17.90
2018,07,14,02,41,17.90
2018,07,14,02,42,17.90
2018,07,14,02,43,17.90
2018,07,14,02,44,17.90
2018,07,14,02,45,17.90
2018,07,14,02,46,17.80
2018,07,14,02,47,17.80
2018,07,14,02,48,17.80
2018,07,14,02,49,17.80
2018,07,14,02,50,17.70
2018,07,14,02,51,17.70
2018,07,14,02,52,17.70
2018,07,14,02,53,17.70
2018,07,14,02,54,17.60
2018,07,14,02,55,17.60
2018,07,14,02,56,17.60
2018,07,14,02,57,17.60
2018,07,14,02,58,17.60
2018,07,14,02,59,17.60
2018,07,14,03,00,17.70
2018,07,14,03,01,17.70
2018,07,14,03,02,17.70
2018,07,14,03,03,17.70
2018,07,14,03,04,17.70
2018,07,14,03,05,17.70
2018,07,14,03,06,17.70
2018,07,14,03,07,17.70
2018,07,14,03,08,17.70
2018,07,14,03,09,17.70
2018,07,14,03,10,17.70
2018,07,14,03,11,17.70
2018,07,14,03,12,17.70
2018,07,14,03,13,17.70
2018,07,14,03,14,17.70
2018,07,14,03,15,17.70
2018,07,14,03,16,17.70
2018,07,14,03,17,17.60
2018,07,14,03,18,17.60
2018,07,14,03,19,17.60
2018,07,14,03,20,17.70
2018,07,14,03,21,17.70
2018,07,14,03,22,17.70
2018,07,14,03,23,17.70
2018,07,14,03,24,17.70
2018,07,14,03,25,17.70
2018,07,14,03,26,17.70
2018,07,14,03,27,17.70
2018,07,14,03,28,17.70
2018,07,14,03,29,17.70
2018,07,14,03,30,17.60
2018,07,14,03,31,17.60
2018,07,14,03,32,17.70
2018,07,14,03,33,17.60
2018,07,14,03,34,17.60
2018,07,14,03,35,17.60
2018,07,14,03,36,17.60
2018,07,14,03,37,17.60
2018,07,14,03,38,17.60
2018,07,14,03,39,17.60
2018,07,14,03,40,17.60
2018,07,14,03,41,17.60
2018,07,14,03,42,17.60
2018,07,14,03,43,17.60
2018,07,14,03,44,17.60
2018,07,14,03,45,17.60
2018,07,14,03,46,17.60
2018,07,14,03,47,17.60
2018,07,14,03,48,17.60
2018,07,14,03,49,17.60
2018,07,14,03,50,17.60
2018,07,14,03,51,17.60
2018,07,14,03,52,17.60
2018,07,14,03,53,17.60
2018,07,14,03,54,17.60
2018,07,14,03,55,17.60
2018,07,14,03,56,17.60
2018,07,14,03,57,17.50
2018,07,14,03,58,17.50
2018,07,14,03,59,17.50
2018,07,14,04,00,17.50
2018,07,14,04,01,17.40
2018,07,14,04,02,17.40
2018,07,14,04,03,17.40
2018,07,14,04,04,17.30
2018,07,14,04,05,17.30
2018,07,14,04,06,17.30
2018,07,14,04,07,17.30
2018,07,14,04,08,17.30
2018,07,14,04,09,17.30
2018,07,14,04,10,17.20
2018,07,14,04,11,17.20
2018,07,14,04,12,17.20
2018,07,14,04,13,17.20
2018,07,14,04,14,17.20
2018,07,14,04,15,17.20
2018,07,14,04,16,17.30
2018,07,14,04,17,17.30
2018,07,14,04,18,17.30
2018,07,14,04,19,17.30
2018,07,14,04,20,17.30
2018,07,14,04,21,17.30
2018,07,14,04,22,17.30
2018,07,14,04,23,17.30
2018,07,14,04,24,17.30
2018,07,14,04,25,17.30
2018,07,14,04,26,17.30
2018,07,14,04,27,17.30
2018,07,14,04,28,17.30
2018,07,14,04,29,17.30
2018,07,14,04,30,17.30
2018,07,14,04,31,17.30
2018,07,14,04,32,17.30
2018,07,14,04,33,17.30
2018,07,14,04,34,17.30
2018,07,14,04,35,17.30
2018,07,14,04,36,17.30
2018,07,14,04,37,17.30
2018,07,14,04,38,17.30
2018,07,14,04,39,17.30
2018,07,14,04,40,17.30
2018,07,14,04,41,17.30
2018,07,14,04,42,17.30
2018,07,14,04,43,17.20
2018,07,14,04,44,17.20
2018,07,14,04,45,17.20
2018,07,14,04,46,17.20
2018,07,14,04,47,17.20
2018,07,14,04,48,17.20
2018,07,14,04,49,17.20
2018,07,14,04,50,17.20
2018,07,14,04,51,17.20
2018,07,14,04,52,17.10
2018,07,14,04,53,17.10
2018,07,14,04,54,17.10
2018,07,14,04,55,17.10
2018,07,14,04,56,17.10
2018,07,14,04,57,17.10
2018,07,14,04,58,17.10
2018,07,14,04,59,17.10
2018,07,14,05,00,17.00
2018,07,14,05,01,17.00
2018,07,14,05,02,17.00
2018,07,14,05,03,16.90
2018,07,14,05,04,16.90
2018,07,14,05,05,16.90
2018,07,14,05,06,16.80
2018,07,14,05,07,16.80
2018,07,14,05,08,16.80
2018,07,14,05,09,16.80
2018,07,14,05,10,16.80
2018,07,14,05,11,16.70
2018,07,14,05,12,16.70
2018,07,14,05,13,16.70
2018,07,14,05,14,16.70
2018,07,14,05,15,16.60
2018,07,14,05,16,16.60
2018,07,14,05,17,16.60
2018,07,14,05,18,16.60
2018,07,14,05,19,16.60
2018,07,14,05,20,16.60
2018,07,14,05,21,16.50
2018,07,14,05,22,16.50
2018,07,14,05,23,16.50
2018,07,14,05,24,16.40
2018,07,14,05,25,16.40
2018,07,14,05,26,16.40
2018,07,14,05,27,16.40
2018,07,14,05,28,16.40
2018,07,14,05,29,16.40
2018,07,14,05,30,16.40
2018,07,14,05,31,16.40
2018,07,14,05,32,16.40
2018,07,14,05,33,16.40
2018,07,14,05,34,16.40
2018,07,14,05,35,16.40
2018,07,14,05,36,16.40
2018,07,14,05,37,16.40
2018,07,14,05,38,16.40
2018,07,14,05,39,16.40
2018,07,14,05,40,16.40
2018,07,14,05,41,16.50
2018,07,14,05,42,16.50
2018,07,14,05,43,16.50
2018,07,14,05,44,16.50
2018,07,14,05,45,16.50
2018,07,14,05,46,16.50
2018,07,14,05,47,16.60
2018,07,14,05,48,16.60
2018,07,14,05,49,16.60
2018,07,14,05,50,16.60
2018,07,14,05,51,16.60
2018,07,14,05,52,16.60
2018,07,14,05,53,16.60
2018,07,14,05,54,16.60
2018,07,14,05,55,16.60
2018,07,14,05,56,16.60
2018,07,14,05,57,16.60
2018,07,14,05,58,16.60
2018,07,14,05,59,16.60
2018,07,14,06,00,16.60
2018,07,14,06,01,16.60
2018,07,14,06,02,16.60
2018,07,14,06,03,16.60
2018,07,14,06,04,16.60
2018,07,14,06,05,16.60
2018,07,14,06,06,16.60
2018,07,14,06,07,16.60
2018,07,14,06,08,16.60
2018,07,14,06,09,16.60
2018,07,14,06,10,16.60
2018,07,14,06,11,16.60
2018,07,14,06,12,16.60
2018,07,14,06,13,16.60
2018,07,14,06,14,16.70
2018,07,14,06,15,16.70
2018,07,14,06,16,16.70
2018,07,14,06,17,16.70
2018,07,14,06,18,16.80
2018,07,14,06,19,16.80
2018,07,14,06,20,16.80
2018,07,14,06,21,16.80
2018,07,14,06,22,16.80
2018,07,14,06,23,16.80
2018,07,14,06,24,16.80
2018,07,14,06,25,16.80
2018,07,14,06,26,16.80
2018,07,14,06,27,16.80
2018,07,14,06,28,16.80
2018,07,14,06,29,16.80
2018,07,14,06,30,16.80
2018,07,14,06,31,16.80
2018,07,14,06,32,16.80
2018,07,14,06,33,16.80
2018,07,14,06,34,16.80
2018,07,14,06,35,16.80
2018,07,14,06,36,16.90
2018,07,14,06,37,16.80
2018,07,14,06,38,16.90
2018,07,14,06,39,16.90
2018,07,14,06,40,16.90
2018,07,14,06,41,16.90
2018,07,14,06,42,16.90
2018,07,14,06,43,16.90
2018,07,14,06,44,16.90
2018,07,14,06,45,17.00
2018,07,14,06,46,17.00
2018,07,14,06,47,17.00
2018,07,14,06,48,17.00
2018,07,14,06,49,17.10
2018,07,14,06,50,17.10
2018,07,14,06,51,17.10
2018,07,14,06,52,17.10
2018,07,14,06,53,17.20
2018,07,14,06,54,17.20
2018,07,14,06,55,17.20
2018,07,14,06,56,17.20
2018,07,14,06,57,17.20
2018,07,14,06,58,17.30
2018,07,14,06,59,17.30
2018,07,14,07,00,17.30
2018,07,14,07,01,17.30
2018,07,14,07,02,17.30
2018,07,14,07,03,17.40
2018,07,14,07,04,17.40
2018,07,14,07,05,17.40
2018,07,14,07,06,17.40
2018,07,14,07,07,17.40
2018,07,14,07,08,17.40
2018,07,14,07,09,17.50
2018,07,14,07,10,17.50
2018,07,14,07,11,17.40
2018,07,14,07,12,17.40
2018,07,14,07,13,17.40
2018,07,14,07,14,17.40
2018,07,14,07,15,17.40
2018,07,14,07,16,17.40
2018,07,14,07,17,17.40
2018,07,14,07,18,17.40
2018,07,14,07,19,17.40
2018,07,14,07,20,17.40
2018,07,14,07,21,17.40
2018,07,14,07,22,17.40
2018,07,14,07,23,17.40
2018,07,14,07,24,17.40
2018,07,14,07,25,17.40
2018,07,14,07,26,17.40
2018,07,14,07,27,17.40
2018,07,14,07,28,17.40
2018,07,14,07,29,17.40
2018,07,14,07,30,17.40
2018,07,14,07,31,17.40
2018,07,14,07,32,17.50
2018,07,14,07,33,17.50
2018,07,14,07,34,17.50
2018,07,14,07,35,17.50
2018,07,14,07,36,17.50
2018,07,14,07,37,17.50
2018,07,14,07,38,17.50
2018,07,14,07,39,17.50
2018,07,14,07,40,17.50
2018,07,14,07,41,17.60
2018,07,14,07,42,17.60
2018,07,14,07,43,17.60
2018,07,14,07,44,17.60
2018,07,14,07,45,17.60
2018,07,14,07,46,17.60
2018,07,14,07,47,17.70
2018,07,14,07,48,17.70
2018,07,14,07,49,17.70
2018,07,14,07,50,17.70
2018,07,14,07,51,17.70
2018,07,14,07,52,17.80
2018,07,14,07,53,17.80
2018,07,14,07,54,17.80
2018,07,14,07,55,17.90
2018,07,14,07,56,17.90
2018,07,14,07,57,17.90
2018,07,14,07,58,17.90
2018,07,14,07,59,18.00
2018,07,14,08,00,18.00
2018,07,14,08,01,18.00
2018,07,14,08,02,18.10
2018,07,14,08,03,18.10
2018,07,14,08,04,18.10
2018,07,14,08,05,18.10
2018,07,14,08,06,18.10
2018,07,14,08,07,18.10
2018,07,14,08,08,18.10
2018,07,14,08,09,18.10
2018,07,14,08,10,18.10
2018,07,14,08,11,18.10
2018,07,14,08,12,18.10
2018,07,14,08,13,18.10
2018,07,14,08,14,18.00
2018,07,14,08,15,18.00
2018,07,14,08,16,18.10
2018,07,14,08,17,18.00
2018,07,14,08,18,18.00
2018,07,14,08,19,18.00
2018,07,14,08,20,18.00
2018,07,14,08,21,17.90
2018,07,14,08,22,17.90
2018,07,14,08,23,17.90
2018,07,14,08,24,17.90
2018,07,14,08,25,17.90
2018,07,14,08,26,17.90
2018,07,14,08,27,17.90
2018,07,14,08,28,17.90
2018,07,14,08,29,17.90
2018,07,14,08,30,17.90
2018,07,14,08,31,18.00
2018,07,14,08,32,18.00
2018,07,14,08,33,17.90
2018,07,14,08,34,17.90
2018,07,14,08,35,17.90
2018,07,14,08,36,17.90
2018,07,14,08,37,18.00
2018,07,14,08,38,18.00
2018,07,14,08,39,18.00
2018,07,14,08,40,18.00
2018,07,14,08,41,18.00
2018,07,14,08,42,18.00
2018,07,14,08,43,18.10
2018,07,14,08,44,18.00
2018,07,14,08,45,18.00
2018,07,14,08,46,18.00
2018,07,14,08,47,18.00
2018,07,14,08,48,18.10
2018,07,14,08,49,18.10
2018,07,14,08,50,18.10
2018,07,14,08,51,18.10
2018,07,14,08,52,18.10
2018,07,14,08,53,18.10
2018,07,14,08,54,18.10
2018,07,14,08,55,18.10
2018,07,14,08,56,18.10
2018,07,14,08,57,18.10
2018,07,14,08,58,18.10
2018,07,14,08,59,18.10
2018,07,14,09,00,18.10
2018,07,14,09,01,18.10
2018,07,14,09,02,18.10
2018,07,14,09,03,18.10
2018,07,14,09,04,18.10
2018,07,14,09,05,18.10
2018,07,14,09,06,18.20
2018,07,14,09,07,18.20
2018,07,14,09,08,18.20
2018,07,14,09,09,18.30
2018,07,14,09,10,18.30
2018,07,14,09,11,18.30
2018,07,14,09,12,18.30
2018,07,14,09,13,18.40
2018,07,14,09,14,18.40
2018,07,14,09,15,18.40
2018,07,14,09,16,18.40
2018,07,14,09,17,18.50
2018,07,14,09,18,18.50
2018,07,14,09,19,18.60
2018,07,14,09,20,18.60
2018,07,14,09,21,18.60
2018,07,14,09,22,18.60
2018,07,14,09,23,18.60
2018,07,14,09,24,18.60
2018,07,14,09,25,18.70
2018,07,14,09,26,18.70
2018,07,14,09,27,18.70
2018,07,14,09,28,18.70
2018,07,14,09,29,18.70
2018,07,14,09,30,18.70
2018,07,14,09,31,18.80
2018,07,14,09,32,18.80
2018,07,14,09,33,18.80
2018,07,14,09,34,18.80
2018,07,14,09,35,18.80
2018,07,14,09,36,18.80
2018,07,14,09,37,18.80
2018,07,14,09,38,18.90
2018,07,14,09,39,18.90
2018,07,14,09,40,18.90
2018,07,14,09,41,18.90
2018,07,14,09,42,18.90
2018,07,14,09,43,19.00
2018,07,14,09,44,19.00
2018,07,14,09,45,19.10
2018,07,14,09,46,19.10
2018,07,14,09,47,19.10
2018,07,14,09,48,19.10
2018,07,14,09,49,19.20
2018,07,14,09,50,19.20
2018,07,14,09,51,19.20
2018,07,14,09,52,19.20
2018,07,14,09,53,19.30
2018,07,14,09,54,19.30
2018,07,14,09,55,19.40
2018,07,14,09,56,19.40
2018,07,14,09,57,19.40
2018,07,14,09,58,19.40
2018,07,14,09,59,19.50
2018,07,14,10,00,19.50
2018,07,14,10,01,19.60
2018,07,14,10,02,19.60
2018,07,14,10,03,19.60
2018,07,14,10,04,19.70
2018,07,14,10,05,19.70
2018,07,14,10,06,19.80
2018,07,14,10,07,19.80
2018,07,14,10,08,19.90
2018,07,14,10,09,19.90
2018,07,14,10,10,20.00
2018,07,14,10,11,20.20
2018,07,14,10,12,20.20
2018,07,14,10,13,20.30
2018,07,14,10,14,20.40
2018,07,14,10,15,20.40
2018,07,14,10,16,20.40
2018,07,14,10,17,20.50
2018,07,14,10,18,20.40
2018,07,14,10,19,20.40
2018,07,14,10,20,20.40
2018,07,14,10,21,20.40
2018,07,14,10,22,20.40
2018,07,14,10,23,20.50
2018,07,14,10,24,20.50
2018,07,14,10,25,20.60
2018,07,14,10,26,20.60
2018,07,14,10,27,20.60
2018,07,14,10,28,20.60
2018,07,14,10,29,20.70
2018,07,14,10,30,20.60
2018,07,14,10,31,20.50
2018,07,14,10,32,20.50
2018,07,14,10,33,20.50
2018,07,14,10,34,20.50
2018,07,14,10,35,20.50
2018,07,14,10,36,20.50
2018,07,14,10,37,20.60
2018,07,14,10,38,20.60
2018,07,14,10,39,20.60
2018,07,14,10,40,20.70
2018,07,14,10,41,20.70
2018,07,14,10,42,20.70
2018,07,14,10,43,20.70
2018,07,14,10,44,20.80
2018,07,14,10,45,20.80
2018,07,14,10,46,20.80
2018,07,14,10,47,20.90
2018,07,14,10,48,20.90
2018,07,14,10,49,20.90
2018,07,14,10,50,20.90
2018,07,14,10,51,20.90
2018,07,14,10,52,20.90
2018,07,14,10,53,20.90
2018,07,14,10,54,20.90
2018,07,14,10,55,20.90
2018,07,14,10,56,20.80
2018,07,14,10,57,20.80
2018,07,14,10,58,20.70
2018,07,14,10,59,20.70
2018,07,14,11,00,20.70
2018,07,14,11,01,20.60
2018,07,14,11,02,20.60
2018,07,14,11,03,20.60
2018,07,14,11,04,20.60
2018,07,14,11,05,20.60
2018,07,14,11,06,20.60
2018,07,14,11,07,20.60
2018,07,14,11,08,20.60
2018,07,14,11,09,20.70
2018,07,14,11,10,20.70
2018,07,14,11,11,20.80
2018,07,14,11,12,20.80
2018,07,14,11,13,20.90
2018,07,14,11,14,21.00
2018,07,14,11,15,21.10
2018,07,14,11,16,21.10
2018,07,14,11,17,21.20
2018,07,14,11,18,21.30
2018,07,14,11,19,21.40
2018,07,14,11,20,21.50
2018,07,14,11,21,21.60
2018,07,14,11,22,21.70
2018,07,14,11,23,21.80
2018,07,14,11,24,21.80
2018,07,14,11,25,21.90
2018,07,14,11,26,22.00
2018,07,14,11,27,22.10
2018,07,14,11,28,22.20
2018,07,14,11,29,22.20
2018,07,14,11,30,22.10
2018,07,14,11,31,22.10
2018,07,14,11,32,22.10
2018,07,14,11,33,22.10
2018,07,14,11,34,22.10
2018,07,14,11,35,22.10
2018,07,14,11,36,22.10
2018,07,14,11,37,22.10
2018,07,14,11,38,22.10
2018,07,14,11,39,22.10
2018,07,14,11,40,22.20
2018,07,14,11,41,22.20
2018,07,14,11,42,22.20
2018,07,14,11,43,22.30
2018,07,14,11,44,22.30
2018,07,14,11,45,22.30
2018,07,14,11,46,22.30
2018,07,14,11,47,22.30
2018,07,14,11,48,22.30
2018,07,14,11,49,22.30
2018,07,14,11,50,22.30
2018,07,14,11,51,22.30
2018,07,14,11,52,22.30
2018,07,14,11,53,22.30
2018,07,14,11,54,22.40
2018,07,14,11,55,22.40
2018,07,14,11,56,22.40
2018,07,14,11,57,22.40
2018,07,14,11,58,22.40
2018,07,14,11,59,22.40
2018,07,14,12,00,22.40
2018,07,14,12,01,22.40
2018,07,14,12,02,22.40
2018,07,14,12,03,22.40
2018,07,14,12,04,22.40
2018,07,14,12,05,22.40
2018,07,14,12,06,22.40
2018,07,14,12,07,22.40
2018,07,14,12,08,22.40
2018,07,14,12,09,22.30
2018,07,14,12,10,22.30
2018,07,14,12,11,22.30
2018,07,14,12,12,22.30
2018,07,14,12,13,22.30
2018,07,14,12,14,22.30
2018,07,14,12,15,22.30
2018,07,14,12,16,22.30
2018,07,14,12,17,22.20
2018,07,14,12,18,22.20
2018,07,14,12,19,22.20
2018,07,14,12,20,22.30
2018,07,14,12,21,22.30
2018,07,14,12,22,22.20
2018,07,14,12,23,22.30
2018,07,14,12,24,22.30
2018,07,14,12,25,22.30
2018,07,14,12,26,22.30
2018,07,14,12,27,22.30
2018,07,14,12,28,22.30
2018,07,14,12,29,22.30
2018,07,14,12,30,22.40
2018,07,14,12,31,22.40
2018,07,14,12,32,22.50
2018,07,14,12,33,22.50
2018,07,14,12,34,22.50
2018,07,14,12,35,22.50
2018,07,14,12,36,22.50
2018,07,14,12,37,22.40
2018,07,14,12,38,22.40
2018,07,14,12,39,22.50
2018,07,14,12,40,22.60
2018,07,14,12,41,22.60
2018,07,14,12,42,22.60
2018,07,14,12,43,22.60
2018,07,14,12,44,22.70
2018,07,14,12,45,22.70
2018,07,14,12,46,22.80
2018,07,14,12,47,22.80
2018,07,14,12,48,22.80
2018,07,14,12,49,22.70
2018,07,14,12,50,22.80
2018,07,14,12,51,22.80
2018,07,14,12,52,22.90
2018,07,14,12,53,22.90
2018,07,14,12,54,23.00
2018,07,14,12,55,23.10
2018,07,14,12,56,23.20
2018,07,14,12,57,23.20
2018,07,14,12,58,23.10
2018,07,14,12,59,23.10
2018,07,14,13,00,23.20
2018,07,14,13,01,23.20
2018,07,14,13,02,23.30
2018,07,14,13,03,23.30
2018,07,14,13,04,23.40
2018,07,14,13,05,23.40
2018,07,14,13,06,23.40
2018,07,14,13,07,23.40
2018,07,14,13,08,23.40
2018,07,14,13,09,23.50
2018,07,14,13,10,23.60
2018,07,14,13,11,23.60
2018,07,14,13,12,23.60
2018,07,14,13,13,23.60
2018,07,14,13,14,23.70
2018,07,14,13,15,23.70
2018,07,14,13,16,23.80
2018,07,14,13,17,23.80
2018,07,14,13,18,23.80
2018,07,14,13,19,23.80
2018,07,14,13,20,23.90
2018,07,14,13,21,23.90
2018,07,14,13,22,24.00
2018,07,14,13,23,24.00
2018,07,14,13,24,24.00
2018,07,14,13,25,24.00
2018,07,14,13,26,24.00
2018,07,14,13,27,24.00
2018,07,14,13,28,24.10
2018,07,14,13,29,24.10
2018,07,14,13,30,24.20
2018,07,14,13,31,24.30
2018,07,14,13,32,24.40
2018,07,14,13,33,24.50
2018,07,14,13,34,24.40
2018,07,14,13,35,24.40
2018,07,14,13,36,24.30
2018,07,14,13,37,24.30
2018,07,14,13,38,24.30
2018,07,14,13,39,24.20
2018,07,14,13,40,24.30
2018,07,14,13,41,24.30
2018,07,14,13,42,24.30
2018,07,14,13,43,24.30
2018,07,14,13,44,24.30
2018,07,14,13,45,24.40
2018,07,14,13,46,24.40
2018,07,14,13,47,24.40
2018,07,14,13,48,24.40
2018,07,14,13,49,24.50
2018,07,14,13,50,24.70
2018,07,14,13,51,24.80
2018,07,14,13,52,24.90
2018,07,14,13,53,25.00
2018,07,14,13,54,25.00
2018,07,14,13,55,25.00
2018,07,14,13,56,25.00
2018,07,14,13,57,25.00
2018,07,14,13,58,24.90
2018,07,14,13,59,24.90
2018,07,14,14,00,24.90
2018,07,14,14,01,24.80
2018,07,14,14,02,24.80
2018,07,14,14,03,24.70
2018,07,14,14,04,24.80
2018,07,14,14,05,24.80
2018,07,14,14,06,24.90
2018,07,14,14,07,24.90
2018,07,14,14,08,24.90
2018,07,14,14,09,24.90
2018,07,14,14,10,24.90
2018,07,14,14,11,24.80
2018,07,14,14,12,24.90
2018,07,14,14,13,25.00
2018,07,14,14,14,25.00
2018,07,14,14,15,25.00
2018,07,14,14,16,25.00
2018,07,14,14,17,24.90
2018,07,14,14,18,24.90
2018,07,14,14,19,24.90
2018,07,14,14,20,24.80
2018,07,14,14,21,24.80
2018,07,14,14,22,24.90
2018,07,14,14,23,24.90
2018,07,14,14,24,25.00
2018,07,14,14,25,25.00
2018,07,14,14,26,25.10
2018,07,14,14,27,25.10
2018,07,14,14,28,25.10
2018,07,14,14,29,25.10
2018,07,14,14,30,25.10
2018,07,14,14,31,25.10
2018,07,14,14,32,25.10
2018,07,14,14,33,25.10
2018,07,14,14,34,25.10
2018,07,14,14,35,25.20
2018,07,14,14,36,25.20
2018,07,14,14,37,25.20
2018,07,14,14,38,25.30
2018,07,14,14,39,25.30
2018,07,14,14,40,25.30
2018,07,14,14,41,25.20
2018,07,14,14,42,25.30
2018,07,14,14,43,25.30
2018,07,14,14,44,25.30
2018,07,14,14,45,25.20
2018,07,14,14,46,25.20
2018,07,14,14,47,25.20
2018,07,14,14,48,25.20
2018,07,14,14,49,25.30
2018,07,14,14,50,25.30
2018,07,14,14,51,25.40
2018,07,14,14,52,25.50
2018,07,14,14,53,25.60
2018,07,14,14,54,25.60
2018,07,14,14,55,25.60
2018,07,14,14,56,25.70
2018,07,14,14,57,25.80
2018,07,14,14,58,25.90
2018,07,14,14,59,25.90
2018,07,14,15,00,25.90
2018,07,14,15,01,25.90
2018,07,14,15,02,26.00
2018,07,14,15,03,25.90
2018,07,14,15,04,25.90
2018,07,14,15,05,25.90
2018,07,14,15,06,26.00
2018,07,14,15,07,26.00
2018,07,14,15,08,26.00
2018,07,14,15,09,26.10
2018,07,14,15,10,26.10
2018,07,14,15,11,26.10
2018,07,14,15,12,26.20
2018,07,14,15,13,26.20
2018,07,14,15,14,26.20
2018,07,14,15,15,26.20
2018,07,14,15,16,26.20
2018,07,14,15,17,26.30
2018,07,14,15,18,26.40
2018,07,14,15,19,26.40
2018,07,14,15,20,26.30
2018,07,14,15,21,26.30
2018,07,14,15,22,26.30
2018,07,14,15,23,26.30
2018,07,14,15,24,26.20
2018,07,14,15,25,26.20
2018,07,14,15,26,26.30
2018,07,14,15,27,26.30
2018,07,14,15,28,26.40
2018,07,14,15,29,26.50
2018,07,14,15,30,26.60
2018,07,14,15,31,26.70
2018,07,14,15,32,26.80
2018,07,14,15,33,26.90
2018,07,14,15,34,26.90
2018,07,14,15,35,27.00
2018,07,14,15,36,27.00
2018,07,14,15,37,26.90
2018,07,14,15,38,27.00
2018,07,14,15,39,26.90
2018,07,14,15,40,26.90
2018,07,14,15,41,26.90
2018,07,14,15,42,26.90
2018,07,14,15,43,26.90
2018,07,14,15,44,26.90
2018,07,14,15,45,27.00
2018,07,14,15,46,27.00
2018,07,14,15,47,27.00
2018,07,14,15,48,27.00
2018,07,14,15,49,26.90
2018,07,14,15,50,26.90
2018,07,14,15,51,26.80
2018,07,14,15,52,26.70
2018,07,14,15,53,26.70
2018,07,14,15,54,26.60
2018,07,14,15,55,26.60
2018,07,14,15,56,26.60
2018,07,14,15,57,26.70
2018,07,14,15,58,26.80
2018,07,14,15,59,26.80
2018,07,14,16,00,26.80
2018,07,14,16,01,26.90
2018,07,14,16,02,26.90
2018,07,14,16,03,26.90
2018,07,14,16,04,27.00
2018,07,14,16,05,27.10
2018,07,14,16,06,27.10
2018,07,14,16,07,27.10
2018,07,14,16,08,27.10
2018,07,14,16,09,27.10
2018,07,14,16,10,27.20
2018,07,14,16,11,27.20
2018,07,14,16,12,27.20
2018,07,14,16,13,27.20
2018,07,14,16,14,27.20
2018,07,14,16,15,27.20
2018,07,14,16,16,27.20
2018,07,14,16,17,27.30
2018,07,14,16,18,27.30
2018,07,14,16,19,27.30
2018,07,14,16,20,27.30
2018,07,14,16,21,27.40
2018,07,14,16,22,27.50
2018,07,14,16,23,27.50
2018,07,14,16,24,27.50
2018,07,14,16,25,27.40
2018,07,14,16,26,27.50
2018,07,14,16,27,27.40
2018,07,14,16,28,27.40
2018,07,14,16,29,27.40
2018,07,14,16,30,27.30
2018,07,14,16,31,27.30
2018,07,14,16,32,27.20
2018,07,14,16,33,27.10
2018,07,14,16,34,26.90
2018,07,14,16,35,26.80
2018,07,14,16,36,26.70
2018,07,14,16,37,26.60
2018,07,14,16,38,26.60
2018,07,14,16,39,26.60
2018,07,14,16,40,26.70
2018,07,14,16,41,26.70
2018,07,14,16,42,26.80
2018,07,14,16,43,26.90
2018,07,14,16,44,27.00
2018,07,14,16,45,27.10
2018,07,14,16,46,27.10
2018,07,14,16,47,27.20
2018,07,14,16,48,27.30
2018,07,14,16,49,27.40
2018,07,14,16,50,27.40
2018,07,14,16,51,27.40
2018,07,14,16,52,27.40
2018,07,14,16,53,27.40
2018,07,14,16,54,27.40
2018,07,14,16,55,27.30
2018,07,14,16,56,27.20
2018,07,14,16,57,27.10
2018,07,14,16,58,27.20
2018,07,14,16,59,27.20
2018,07,14,17,00,27.20
2018,07,14,17,01,27.30
2018,07,14,17,02,27.30
2018,07,14,17,03,27.30
2018,07,14,17,04,27.30
2018,07,14,17,05,27.30
2018,07,14,17,06,27.30
2018,07,14,17,07,27.30
2018,07,14,17,08,27.30
2018,07,14,17,09,27.30
2018,07,14,17,10,27.30
2018,07,14,17,11,27.30
2018,07,14,17,12,27.30
2018,07,14,17,13,27.30
2018,07,14,17,14,27.30
2018,07,14,17,15,27.30
2018,07,14,17,16,27.30
2018,07,14,17,17,27.30
2018,07,14,17,18,27.30
2018,07,14,17,19,27.40